Weather History for KPWC - October, 2012

Change the Weather History Date:

Sunday, October 21, 2012

  Actual Average Record
Temperature  
Mean Temperature 50 °F -  
Max Temperature 59 °F 49 °F 62 °F (1999)
Min Temperature 42 °F 32 °F 17 °F (2008)
Degree Days  
Heating Degree Days 14    
Moisture  
Dew Point 44 °F    
Average Humidity 79    
Maximum Humidity 100    
Minimum Humidity 51    
Precipitation  
Precipitation 0.00 in - - ()
Sea Level Pressure  
Sea Level Pressure 29.86 in    
Wind  
Wind Speed 6 mph (ESE)    
Max Wind Speed 12 mph    
Max Gust Speed -    
Visibility 9 miles    
Events Rain    
Averages and records for this station are not official NWS values.
T = Trace of Precipitation, MM = Missing Value Source: NWS Daily Summary

Daily Weather History Graph

Daily Weather History Graph

Search for Another Location

Airport or City:

Trip Planner

Search our weather history database for the weather conditions in past years. The results will help you decide how hot, cold, wet, or windy it might be!

Date:

Astronomy

Oct. 21, 2012 Rise Set
Actual Time 7:44 AM CDT 6:18 PM CDT
Civil Twilight 7:13 AM CDT 6:49 PM CDT
Nautical Twilight 6:38 AM CDT 7:25 PM CDT
Astronomical Twilight 6:03 AM CDT 7:59 PM CDT
Moon 2:13 PM CDT (10/21) No Moon Set
Length of Visible Light 11h 36m
Length of Day
10h 34m
Waxing Crescent, 45% of the Moon is Illuminated
Oct 21
Waxing Crescent
Oct 21
First Quarter
Oct 29
Full
Nov 6
Last Quarter
Nov 13
New

Hourly Weather History & Observations

Time (CDT) Temp. Windchill Dew Point Humidity Pressure Visibility Wind Dir Wind Speed Gust Speed Precip Events Conditions
12:33 AM 44.6 °F 41.4 °F 42.8 °F 93% 29.81 in 10.0 mi SSE 5.8 mph - N/A   Mostly Cloudy
12:53 AM 44.6 °F 41.4 °F 42.8 °F 93% 29.80 in 10.0 mi SSE 5.8 mph - N/A   Scattered Clouds
1:12 AM 44.6 °F 40.2 °F 42.8 °F 93% 29.81 in 10.0 mi SSE 8.1 mph - N/A Rain Light Rain
1:33 AM 44.6 °F 40.2 °F 42.8 °F 93% 29.80 in 10.0 mi SSE 8.1 mph - N/A   Overcast
2:12 AM 46.4 °F 42.9 °F 42.8 °F 87% 29.81 in 10.0 mi SSE 6.9 mph - N/A   Mostly Cloudy
2:33 AM 44.6 °F 43.1 °F 42.8 °F 93% 29.81 in 10.0 mi SSE 3.5 mph - N/A   Mostly Cloudy
2:53 AM 44.6 °F 43.1 °F 42.8 °F 93% 29.83 in 10.0 mi SE 3.5 mph - N/A   Overcast
3:13 AM 44.6 °F 42.2 °F 42.8 °F 93% 29.82 in 10.0 mi SSE 4.6 mph - N/A   Overcast
3:32 AM 44.6 °F 42.2 °F 42.8 °F 93% 29.82 in 7.0 mi SSE 4.6 mph - N/A Rain Light Rain
3:53 AM 44.6 °F 41.4 °F 42.8 °F 93% 29.81 in 7.0 mi SE 5.8 mph - N/A   Clear
4:13 AM 42.8 °F 38.0 °F 42.8 °F 100% 29.81 in 7.0 mi SE 8.1 mph - N/A   Clear
4:33 AM 42.8 °F 38.6 °F 42.8 °F 100% 29.81 in 7.0 mi SE 6.9 mph - N/A   Clear
5:13 AM 42.8 °F 38.6 °F 42.8 °F 100% 29.81 in 7.0 mi SSE 6.9 mph - N/A   Clear
5:53 AM 42.8 °F 39.3 °F 42.8 °F 100% 29.82 in 5.0 mi SSE 5.8 mph - N/A   Clear
6:13 AM 42.8 °F 39.3 °F 42.8 °F 100% 29.81 in 5.0 mi SSE 5.8 mph - N/A   Clear
6:33 AM 42.8 °F 39.3 °F 42.8 °F 100% 29.81 in 5.0 mi SSE 5.8 mph - N/A   Clear
6:53 AM 42.8 °F 38.0 °F 42.8 °F 100% 29.81 in 5.0 mi SE 8.1 mph - N/A   Clear
7:13 AM 42.8 °F 38.6 °F 42.8 °F 100% 29.81 in 5.0 mi SE 6.9 mph - N/A   Scattered Clouds
7:33 AM 42.8 °F 40.1 °F 42.8 °F 100% 29.83 in 5.0 mi South 4.6 mph - N/A   Scattered Clouds
8:33 AM 42.8 °F 39.3 °F 42.8 °F 100% 29.81 in 4.0 mi SE 5.8 mph - N/A   Clear
8:53 AM 44.6 °F 40.7 °F 42.8 °F 93% 29.82 in 4.0 mi SE 6.9 mph - N/A   Clear
9:33 AM 44.6 °F 41.4 °F 42.8 °F 93% 29.83 in 5.0 mi SE 5.8 mph - N/A   Clear
10:12 AM 48.2 °F - 44.6 °F 87% 29.83 in 7.0 mi SE 8.1 mph - N/A   Clear
10:32 AM 48.2 °F - 44.6 °F 87% 29.83 in 10.0 mi SSE 9.2 mph - N/A   Clear
10:52 AM 51.8 °F - 44.6 °F 76% 29.83 in 10.0 mi SE 5.8 mph - N/A   Clear
11:13 AM 51.8 °F - 44.6 °F 76% 29.83 in 10.0 mi SE 8.1 mph - N/A   Clear
11:33 AM 53.6 °F - 44.6 °F 72% 29.83 in 10.0 mi SE 6.9 mph - N/A   Clear
12:13 PM 55.4 °F - 42.8 °F 63% 29.83 in 10.0 mi East 6.9 mph - N/A   Clear
12:32 PM 55.4 °F - 42.8 °F 63% 29.83 in 10.0 mi East 5.8 mph - N/A   Clear
12:53 PM 57.2 °F - 42.8 °F 59% 29.82 in 10.0 mi East 6.9 mph - N/A   Clear
1:13 PM 57.2 °F - 42.8 °F 59% 29.82 in 10.0 mi ESE 8.1 mph - N/A   Clear
1:33 PM 57.2 °F - 42.8 °F 59% 29.81 in 10.0 mi East 10.4 mph - N/A   Clear
1:52 PM 59.0 °F - 42.8 °F 55% 29.81 in 10.0 mi East 8.1 mph - N/A   Clear
2:13 PM 59.0 °F - 42.8 °F 55% 29.81 in 10.0 mi SE 6.9 mph - N/A   Clear
2:33 PM 59.0 °F - 41.0 °F 51% 29.83 in 10.0 mi SE 4.6 mph - N/A   Clear
2:53 PM 59.0 °F - 42.8 °F 55% 29.83 in 10.0 mi ESE 4.6 mph - N/A   Clear
3:12 PM 59.0 °F - 42.8 °F 55% 29.83 in 10.0 mi SE 4.6 mph - N/A   Scattered Clouds
3:33 PM 59.0 °F - 42.8 °F 55% 29.84 in 10.0 mi SE 4.6 mph - N/A   Scattered Clouds
3:52 PM 59.0 °F - 42.8 °F 55% 29.85 in 10.0 mi ESE 4.6 mph - N/A   Scattered Clouds
4:13 PM 59.0 °F - 42.8 °F 55% 29.86 in 10.0 mi ESE 3.5 mph - N/A   Mostly Cloudy
4:33 PM 57.2 °F - 42.8 °F 59% 29.85 in 10.0 mi ESE 3.5 mph - N/A   Scattered Clouds
4:52 PM 57.2 °F - 42.8 °F 59% 29.87 in 10.0 mi Calm Calm - N/A   Scattered Clouds
5:12 PM 57.2 °F - 44.6 °F 63% 29.88 in 10.0 mi Calm Calm - N/A   Mostly Cloudy
5:33 PM 55.4 °F - 44.6 °F 67% 29.89 in 10.0 mi Calm Calm - N/A   Scattered Clouds
5:52 PM 55.4 °F - 44.6 °F 67% 29.89 in 10.0 mi NNW 3.5 mph - N/A   Clear
6:13 PM 55.4 °F - 44.6 °F 67% 29.91 in 10.0 mi NNW 8.1 mph - N/A   Scattered Clouds
6:33 PM 55.4 °F - 44.6 °F 67% 29.92 in 10.0 mi North 11.5 mph - N/A   Clear
6:51 PM 53.6 °F - 44.6 °F 72% 29.93 in 10.0 mi North 10.4 mph - N/A   Scattered Clouds
7:13 PM 53.6 °F - 44.6 °F 72% 29.93 in 10.0 mi NNE 4.6 mph - N/A   Clear
7:32 PM 53.6 °F - 44.6 °F 72% 29.95 in 10.0 mi North 3.5 mph - N/A   Clear
7:53 PM 51.8 °F - 44.6 °F 76% 29.94 in 10.0 mi North 4.6 mph - N/A   Clear
8:12 PM 51.8 °F - 44.6 °F 76% 29.96 in 10.0 mi North 3.5 mph - N/A   Clear
8:32 PM 51.8 °F - 44.6 °F 76% 29.97 in 10.0 mi North 4.6 mph - N/A   Clear
8:53 PM 51.8 °F - 44.6 °F 76% 29.96 in 10.0 mi North 5.8 mph - N/A   Clear
9:13 PM 51.8 °F - 46.4 °F 82% 29.96 in 10.0 mi North 5.8 mph - N/A   Clear
9:33 PM 51.8 °F - 46.4 °F 82% 29.98 in 10.0 mi North 8.1 mph - N/A   Clear
10:12 PM 51.8 °F - 46.4 °F 82% 29.97 in 10.0 mi North 8.1 mph - N/A   Clear
10:33 PM 50.0 °F - 46.4 °F 87% 29.97 in 10.0 mi North 5.8 mph - N/A   Clear
10:53 PM 50.0 °F - 46.4 °F 87% 29.97 in 10.0 mi North 3.5 mph - N/A   Clear
11:33 PM 50.0 °F - 46.4 °F 87% 29.99 in 10.0 mi North 4.6 mph - N/A   Clear
11:53 PM 50.0 °F - 46.4 °F 87% 30.00 in 10.0 mi NNW 5.8 mph - N/A   Clear